Time,TemperatureF,DewpointF,PressureIn,WindDirection,WindDirectionDegrees,WindSpeedMPH,WindSpeedGustMPH,Humidity,HourlyPrecipIn,Conditions,Clouds,dailyrainin,SoftwareType,DateUTC
2013-07-03 00:08:00,58.2,55.0,29.41,East,82,0.0,1.0,88,0.00,,,0.00,weatherlink.com 1.10,2013-07-03 04:08:00,
2013-07-03 00:23:00,57.7,55.0,29.41,East,82,0.0,1.0,89,0.00,,,0.00,weatherlink.com 1.10,2013-07-03 04:23:00,
2013-07-03 00:38:00,57.7,55.0,29.41,East,84,0.0,1.0,90,0.00,,,0.00,weatherlink.com 1.10,2013-07-03 04:38:00,
2013-07-03 00:53:00,57.9,55.0,29.41,East,84,0.0,1.0,90,0.00,,,0.00,weatherlink.com 1.10,2013-07-03 04:53:00,
2013-07-03 01:08:00,58.0,55.0,29.41,East,83,0.0,1.0,90,0.00,,,0.00,weatherlink.com 1.10,2013-07-03 05:08:00,
2013-07-03 01:23:00,57.3,55.0,29.40,East,84,0.0,1.0,91,0.00,,,0.00,weatherlink.com 1.10,2013-07-03 05:23:00,
2013-07-03 01:38:00,56.8,55.0,29.40,East,83,0.0,1.0,92,0.00,,,0.00,weatherlink.com 1.10,2013-07-03 05:38:00,
2013-07-03 02:08:00,56.1,54.0,29.40,East,84,0.0,0.0,93,0.00,,,0.00,weatherlink.com 1.10,2013-07-03 06:08:00,
2013-07-03 02:23:00,56.1,54.0,29.40,East,83,0.0,1.0,94,0.00,,,0.00,weatherlink.com 1.10,2013-07-03 06:23:00,
2013-07-03 02:38:00,55.9,54.0,29.39,East,83,0.0,0.0,94,0.00,,,0.00,weatherlink.com 1.10,2013-07-03 06:38:00,
2013-07-03 02:53:00,56.2,55.0,29.39,East,84,0.0,1.0,94,0.00,,,0.00,weatherlink.com 1.10,2013-07-03 06:53:00,
2013-07-03 03:08:00,56.2,55.0,29.39,East,83,0.0,1.0,94,0.00,,,0.00,weatherlink.com 1.10,2013-07-03 07:08:00,
2013-07-03 03:23:00,56.3,54.0,29.38,East,82,0.0,2.0,93,0.00,,,0.00,weatherlink.com 1.10,2013-07-03 07:23:00,
2013-07-03 03:53:00,56.2,53.0,29.38,East,82,1.0,2.0,90,0.00,,,0.00,weatherlink.com 1.10,2013-07-03 07:53:00,
2013-07-03 04:08:00,55.9,53.0,29.38,East,92,0.0,3.0,89,0.00,,,0.00,weatherlink.com 1.10,2013-07-03 08:08:00,
2013-07-03 04:23:00,55.7,53.0,29.38,East,79,0.0,1.0,89,0.00,,,0.00,weatherlink.com 1.10,2013-07-03 08:23:00,
2013-07-03 04:38:00,55.4,52.0,29.39,East,81,0.0,0.0,89,0.00,,,0.00,weatherlink.com 1.10,2013-07-03 08:38:00,
2013-07-03 05:25:00,54.0,52.0,29.39,East,81,0.0,1.0,91,0.00,,,0.00,weatherlink.com 1.10,2013-07-03 09:25:00,
2013-07-03 05:39:00,53.6,51.0,29.40,East,81,0.0,0.0,92,0.00,,,0.00,weatherlink.com 1.10,2013-07-03 09:39:00,
2013-07-03 05:54:00,53.6,51.0,29.40,East,80,0.0,1.0,92,0.00,,,0.00,weatherlink.com 1.10,2013-07-03 09:54:00,
2013-07-03 06:09:00,53.8,52.0,29.40,ENE,77,0.0,1.0,92,0.00,,,0.00,weatherlink.com 1.10,2013-07-03 10:09:00,
2013-07-03 06:24:00,54.3,52.0,29.41,ENE,77,0.0,1.0,92,0.00,,,0.00,weatherlink.com 1.10,2013-07-03 10:24:00,
2013-07-03 06:39:00,55.1,53.0,29.41,ENE,75,1.0,2.0,91,0.00,,,0.00,weatherlink.com 1.10,2013-07-03 10:39:00,
2013-07-03 06:54:00,56.7,54.0,29.40,ENE,78,2.0,4.0,89,0.00,,,0.00,weatherlink.com 1.10,2013-07-03 10:54:00,
2013-07-03 07:09:00,57.8,54.0,29.41,NE,49,0.0,5.0,88,0.00,,,0.00,weatherlink.com 1.10,2013-07-03 11:09:00,
2013-07-03 07:24:00,58.5,55.0,29.41,NE,50,2.0,4.0,88,0.00,,,0.00,weatherlink.com 1.10,2013-07-03 11:24:00,
2013-07-03 07:39:00,59.9,56.0,29.40,NE,43,2.0,4.0,87,0.00,,,0.00,weatherlink.com 1.10,2013-07-03 11:39:00,
2013-07-03 07:54:00,61.0,57.0,29.41,NE,46,1.0,6.0,87,0.00,,,0.00,weatherlink.com 1.10,2013-07-03 11:54:00,
2013-07-03 08:09:00,61.9,57.0,29.42,NNE,30,1.0,5.0,85,0.00,,,0.00,weatherlink.com 1.10,2013-07-03 12:09:00,
2013-07-03 08:24:00,62.4,58.0,29.42,NE,43,0.0,5.0,85,0.00,,,0.00,weatherlink.com 1.10,2013-07-03 12:24:00,
2013-07-03 08:54:00,63.6,59.0,29.42,North,9,1.0,6.0,85,0.00,,,0.00,weatherlink.com 1.10,2013-07-03 12:54:00,
2013-07-03 09:09:00,64.6,60.0,29.42,NE,41,2.0,4.0,84,0.00,,,0.00,weatherlink.com 1.10,2013-07-03 13:09:00,
2013-07-03 09:24:00,64.9,60.0,29.42,NE,45,3.0,4.0,84,0.00,,,0.00,weatherlink.com 1.10,2013-07-03 13:24:00,
2013-07-03 10:09:00,69.7,64.0,29.42,NE,41,2.0,9.0,81,0.00,,,0.00,weatherlink.com 1.10,2013-07-03 14:09:00,
2013-07-03 10:24:00,71.1,64.0,29.42,North,6,6.0,9.0,78,0.00,,,0.00,weatherlink.com 1.10,2013-07-03 14:24:00,
2013-07-03 10:39:00,72.7,64.0,29.42,South,172,1.0,7.0,75,0.00,,,0.00,weatherlink.com 1.10,2013-07-03 14:39:00,
2013-07-03 10:54:00,73.4,65.0,29.42,ESE,111,2.0,6.0,74,0.00,,,0.00,weatherlink.com 1.10,2013-07-03 14:54:00,
2013-07-03 11:10:00,71.4,64.0,29.42,ENE,63,0.0,6.0,77,0.00,,,0.00,weatherlink.com 1.10,2013-07-03 15:10:00,
2013-07-03 11:54:00,72.0,64.0,29.42,NE,37,0.0,5.0,77,0.00,,,0.00,weatherlink.com 1.10,2013-07-03 15:54:00,
2013-07-03 12:09:00,73.9,65.0,29.42,East,96,1.0,6.0,74,0.00,,,0.00,weatherlink.com 1.10,2013-07-03 16:09:00,
2013-07-03 12:24:00,76.8,65.0,29.42,NE,44,2.0,6.0,66,0.00,,,0.00,weatherlink.com 1.10,2013-07-03 16:24:00,
2013-07-03 12:40:00,76.1,64.0,29.42,NE,39,3.0,6.0,67,0.00,,,0.00,weatherlink.com 1.10,2013-07-03 16:40:00,
2013-07-03 12:55:00,76.8,65.0,29.42,SSE,163,1.0,3.0,67,0.00,,,0.00,weatherlink.com 1.10,2013-07-03 16:55:00,
2013-07-03 13:25:00,78.0,65.0,29.41,NE,34,3.0,5.0,65,0.00,,,0.00,weatherlink.com 1.10,2013-07-03 17:25:00,
2013-07-03 13:40:00,78.0,66.0,29.41,SW,228,2.0,5.0,67,0.00,,,0.00,weatherlink.com 1.10,2013-07-03 17:40:00,
2013-07-03 13:55:00,77.9,66.0,29.41,WSW,240,5.0,7.0,66,0.00,,,0.00,weatherlink.com 1.10,2013-07-03 17:55:00,
2013-07-03 14:10:00,77.9,66.0,29.40,SW,228,3.0,6.0,67,0.00,,,0.00,weatherlink.com 1.10,2013-07-03 18:10:00,
2013-07-03 14:25:00,78.4,66.0,29.40,SSE,160,1.0,10.0,66,0.00,,,0.00,weatherlink.com 1.10,2013-07-03 18:25:00,
2013-07-03 14:40:00,78.8,66.0,29.39,SSW,197,1.0,7.0,66,0.00,,,0.00,weatherlink.com 1.10,2013-07-03 18:40:00,
2013-07-03 14:55:00,78.6,66.0,29.39,SW,233,3.0,9.0,66,0.00,,,0.00,weatherlink.com 1.10,2013-07-03 18:55:00,
2013-07-03 15:10:00,80.3,66.0,29.38,SW,235,5.0,10.0,62,0.00,,,0.00,weatherlink.com 1.10,2013-07-03 19:10:00,
2013-07-03 15:25:00,80.1,66.0,29.39,SW,218,2.0,8.0,63,0.00,,,0.00,weatherlink.com 1.10,2013-07-03 19:25:00,
2013-07-03 15:40:00,81.2,66.0,29.38,WSW,243,5.0,9.0,61,0.00,,,0.00,weatherlink.com 1.10,2013-07-03 19:40:00,
2013-07-03 15:55:00,81.5,66.0,29.38,WSW,252,3.0,7.0,60,0.00,,,0.00,weatherlink.com 1.10,2013-07-03 19:55:00,
2013-07-03 16:10:00,81.9,66.0,29.38,SW,219,4.0,8.0,58,0.00,,,0.00,weatherlink.com 1.10,2013-07-03 20:10:00,
2013-07-03 16:25:00,82.1,66.0,29.38,SW,225,5.0,7.0,58,0.00,,,0.00,weatherlink.com 1.10,2013-07-03 20:25:00,
2013-07-03 16:55:00,82.8,65.0,29.37,SE,146,0.0,6.0,56,0.00,,,0.00,weatherlink.com 1.10,2013-07-03 20:55:00,
2013-07-03 17:10:00,83.1,66.0,29.37,SSE,165,2.0,5.0,57,0.00,,,0.00,weatherlink.com 1.10,2013-07-03 21:10:00,
2013-07-03 18:10:00,81.0,66.0,29.35,NE,43,0.0,0.0,60,0.00,,,0.00,weatherlink.com 1.10,2013-07-03 22:10:00,
2013-07-03 18:25:00,78.8,68.0,29.35,East,89,1.0,6.0,69,0.00,,,0.00,weatherlink.com 1.10,2013-07-03 22:25:00,
2013-07-03 18:40:00,77.9,68.0,29.35,ESE,122,1.0,1.0,72,0.00,,,0.00,weatherlink.com 1.10,2013-07-03 22:40:00,
2013-07-03 18:55:00,77.4,69.0,29.36,ENE,77,1.0,3.0,74,0.00,,,0.00,weatherlink.com 1.10,2013-07-03 22:55:00,
2013-07-03 19:10:00,76.3,68.0,29.36,ENE,70,2.0,6.0,76,0.00,,,0.00,weatherlink.com 1.10,2013-07-03 23:10:00,
2013-07-03 19:40:00,74.7,68.0,29.35,NE,50,2.0,5.0,80,0.00,,,0.00,weatherlink.com 1.10,2013-07-03 23:40:00,
2013-07-03 19:55:00,75.1,68.0,29.36,SSE,158,1.0,2.0,78,0.00,,,0.00,weatherlink.com 1.10,2013-07-03 23:55:00,
2013-07-03 20:10:00,75.2,68.0,29.35,WSW,256,2.0,7.0,79,0.00,,,0.00,weatherlink.com 1.10,2013-07-04 00:10:00,
2013-07-03 20:25:00,74.0,68.0,29.36,SSW,198,2.0,5.0,81,0.00,,,0.00,weatherlink.com 1.10,2013-07-04 00:25:00,
2013-07-03 20:55:00,71.8,67.0,29.35,East,79,1.0,5.0,84,0.00,,,0.00,weatherlink.com 1.10,2013-07-04 00:55:00,
2013-07-03 21:10:00,70.9,67.0,29.35,NE,47,0.0,2.0,86,0.00,,,0.00,weatherlink.com 1.10,2013-07-04 01:10:00,
2013-07-03 21:25:00,69.9,66.0,29.36,ENE,59,0.0,3.0,88,0.00,,,0.00,weatherlink.com 1.10,2013-07-04 01:25:00,
2013-07-03 21:40:00,69.0,66.0,29.36,South,177,0.0,3.0,89,0.00,,,0.00,weatherlink.com 1.10,2013-07-04 01:40:00,
2013-07-03 21:55:00,68.3,65.0,29.36,South,174,0.0,1.0,90,0.00,,,0.00,weatherlink.com 1.10,2013-07-04 01:55:00,
2013-07-03 22:10:00,67.5,65.0,29.37,South,176,0.0,1.0,91,0.00,,,0.00,weatherlink.com 1.10,2013-07-04 02:10:00,
2013-07-03 22:40:00,66.6,64.0,29.37,South,174,0.0,0.0,92,0.00,,,0.00,weatherlink.com 1.10,2013-07-04 02:40:00,
2013-07-03 22:55:00,66.4,64.0,29.38,South,174,0.0,1.0,93,0.00,,,0.00,weatherlink.com 1.10,2013-07-04 02:55:00,
2013-07-03 23:40:00,66.9,64.0,29.38,ESE,105,0.0,0.0,91,0.00,,,0.00,weatherlink.com 1.10,2013-07-04 03:40:00,
2013-07-03 23:55:00,66.2,64.0,29.38,ESE,105,0.0,0.0,91,0.00,,,0.00,weatherlink.com 1.10,2013-07-04 03:55:00,